Location: Le Gr�zie
(43.6000°N, 13.5000°E)
Time: 15:39:22
(UTC+00:00)

SL-16 R/B - Pass Details

Date: 09 April 2020
Orbit: 842 x 846 km, 71.0° (Epoch: 27 May)

Event Time Altitude Azimuth Distance (km) Brightness Sun altitude
Rises 23:14:39 0° 328° (NNW) 3,413 6.0 -38.3°
Reaches altitude 10° 23:17:14 10° 321° (NW) 2,474 5.1 -38.3°
Enters shadow 23:18:40 17° 313° (NW) 1,998 4.4 -38.3°
